Oakland, CA

3:37 PM PDT on June 23, 2018 (GMT -0700)
Metro Oakland International

Weather History for KOAK - November, 2017

Change the Weather History Date:

Friday, November 17, 2017

  Actual Average Record
Temperature  
Mean Temperature 53 °F 54 °F  
Max Temperature 63 °F 63 °F 76 °F (2005)
Min Temperature 42 °F 45 °F 33 °F (1961)
Degree Days  
Heating Degree Days 12 11  
Month to date heating degree days 147 156  
Since 1 July heating degree days 340 508  
Cooling Degree Days 0 0  
Month to date cooling degree days 0 0  
Year to date cooling degree days 312 137  
Growing Degree Days 4 (Base 50)    
Moisture  
Dew Point 45 °F    
Average Humidity 73    
Maximum Humidity 100    
Minimum Humidity 46    
Precipitation  
Precipitation 0.00 in 0.09 in 0.97 in (1983)
Month to date precipitation 2.62 1.32  
Year to date precipitation 22.87 16.02  
Sea Level Pressure  
Sea Level Pressure 30.14 in    
Wind  
Wind Speed 7 mph (NNE)    
Max Wind Speed 16 mph    
Max Gust Speed 19 mph    
Visibility 10 miles    
Events      
T = Trace of Precipitation, MM = Missing Value Source: NWS Daily Summary

Daily Weather History Graph

Daily Weather History Graph

Search for Another Location

Airport or City:

Astronomy

Nov. 17, 2017 Rise Set
Actual Time 6:51 AM PST 4:56 PM PST
Civil Twilight 6:23 AM PST 5:24 PM PST
Nautical Twilight 5:51 AM PST 5:55 PM PST
Astronomical Twilight 5:20 AM PST 6:27 PM PST
Moon 5:56 AM PST (11/17) 4:57 PM PST (11/17)
Length of Visible Light 11h 00m
Length of Day
10h 04m
Waning Crescent, 0% of the Moon is Illuminated
Nov 17
Waning Crescent
Nov 18
New
Nov 26
First Quarter
Dec 3
Full
Dec 9
Last Quarter

Hourly Weather History & Observations

Time (PST) Temp. Windchill Dew Point Humidity Pressure Visibility Wind Dir Wind Speed Gust Speed Precip Events Conditions
12:09 AM 52.0 °F - 51.1 °F 97% 29.99 in 10.0 mi WNW 13.8 mph - N/A   Overcast
12:53 AM 53.1 °F - 52.0 °F 96% 30.00 in 10.0 mi West 11.5 mph - N/A   Overcast
1:53 AM 53.1 °F - 52.0 °F 96% 30.02 in 10.0 mi West 16.1 mph - N/A   Overcast
2:53 AM 53.1 °F - 51.1 °F 93% 30.04 in 10.0 mi WNW 8.1 mph - N/A   Partly Cloudy
3:53 AM 52.0 °F - 50.0 °F 93% 30.05 in 10.0 mi Variable 3.5 mph - N/A   Partly Cloudy
4:43 AM 48.9 °F - 48.0 °F 97% 30.07 in 10.0 mi ENE 3.5 mph - N/A   Overcast
4:53 AM 48.9 °F - 48.0 °F 97% 30.07 in 10.0 mi Calm Calm - N/A   Mostly Cloudy
5:13 AM 48.9 °F - 48.0 °F 97% 30.08 in 10.0 mi Calm Calm - N/A   Partly Cloudy
5:53 AM 46.9 °F - 46.9 °F 100% 30.10 in 10.0 mi NE 3.5 mph - N/A   Partly Cloudy
6:53 AM 46.0 °F 44.8 °F 46.0 °F 100% 30.12 in 10.0 mi ENE 3.5 mph - N/A   Partly Cloudy
7:53 AM 50.0 °F - 50.0 °F 100% 30.15 in 10.0 mi Calm Calm - N/A   Partly Cloudy
8:53 AM 54.0 °F - 51.1 °F 90% 30.17 in 10.0 mi ENE 5.8 mph - N/A   Scattered Clouds
9:53 AM 55.9 °F - 51.1 °F 84% 30.19 in 10.0 mi Calm Calm - N/A   Scattered Clouds
10:53 AM 57.9 °F - 46.9 °F 67% 30.20 in 10.0 mi WNW 8.1 mph - N/A   Partly Cloudy
11:53 AM 60.1 °F - 46.0 °F 60% 30.20 in 10.0 mi NNW 8.1 mph - N/A   Partly Cloudy
12:53 PM 62.1 °F - 44.1 °F 52% 30.18 in 10.0 mi NNE 10.4 mph - N/A   Partly Cloudy
1:53 PM 62.1 °F - 43.0 °F 50% 30.17 in 10.0 mi NNE 9.2 mph - N/A   Partly Cloudy
2:53 PM 62.1 °F - 41.0 °F 46% 30.17 in 10.0 mi NNE 12.7 mph - N/A   Partly Cloudy
3:53 PM 60.1 °F - 42.1 °F 51% 30.16 in 10.0 mi NNE 15.0 mph - N/A   Clear
4:53 PM 55.9 °F - 41.0 °F 57% 30.15 in 10.0 mi North 12.7 mph - N/A   Clear
5:53 PM 54.0 °F - 39.9 °F 59% 30.17 in 10.0 mi NNE 12.7 mph - N/A   Clear
6:53 PM 52.0 °F - 37.0 °F 57% 30.19 in 10.0 mi NE 6.9 mph - N/A   Clear
7:53 PM 51.1 °F - 37.9 °F 61% 30.20 in 10.0 mi ENE 8.1 mph - N/A   Clear
8:53 PM 48.0 °F - 37.9 °F 68% 30.20 in 10.0 mi ENE 6.9 mph - N/A   Clear
9:53 PM 46.9 °F - 39.0 °F 74% 30.21 in 10.0 mi NE 4.6 mph - N/A   Clear
10:53 PM 48.9 °F - 39.9 °F 71% 30.21 in 10.0 mi Calm Calm - N/A   Clear
11:53 PM 43.0 °F - 37.9 °F 82% 30.21 in 10.0 mi Calm Calm - N/A   Clear